Flag for Norway Weather past 2 weeks in Flekkefjord, Norway

Now
47 °F

Cool.


Feels Like: 43 °F
Forecast: 46 / 52 °F
Wind: 10 mph from Northwest

Location: Lista Fyr

Current Time: May 25, 2015 at 1:52:43 AM

Latest Report: May 25, 2015 at 1:00 AM


Visibility: N/A

Pressure: 29.87 "Hg

Humidity: 86%

Dew point: 44 °F

Location of FlekkefjordLocation

Historic Weather in Flekkefjord — Graph

°F

Flekkefjord temperature yesterday

Maximum temperature yesterday: 49 °F (at 8:00 PM)
Minimum temperature yesterday: 43 °F (at 3:00 AM)
Average temperature yesterday: 47 °F

Past Weeks' High & Low Weather Summary

 TemperatureHumidityPressure
High55 °F (May 14, 2:00 PM)98% (May 22, 4:00 PM)30.20 "Hg (May 22, 4:00 PM)
Low37 °F (May 18, 5:00 AM)51% (May 15, 11:00 AM)29.18 "Hg (May 19, 4:00 AM)
Average47 °F84%29.87 "Hg
* Reported Midnight between May 9 and May 10 — Midnight between May 24 and May 25, Flekkefjord, Weather by CustomWeather, © 2015

Note: Actual official high and low records may vary slightly from our data, if they occured in-between our weather recording intervals... More about our weather records

Advertising

Flekkefjord weather history for previous 24 hours

 ConditionsComfort  
Time TempWeatherWind HumidityBarometerVisibility
12:00 AM
Mon, May 25
47 °FCool.9 mph86%29.87 "HgN/A
10:00 PM
Sun, May 24
48 °FCool.9 mph85%29.87 "HgN/A
9:00 PM48 °FCool.9 mph84%29.87 "HgN/A
8:00 PM49 °FPartly sunny.12 mph86%29.85 "Hg9 mi
7:00 PM48 °FCool.9 mph91%29.86 "HgN/A
6:00 PM49 °FCool.7 mph94%29.85 "HgN/A
5:00 PM47 °FCool.7 mph97%29.86 "HgN/A
4:00 PM49 °FCool.10 mph97%29.87 "HgN/A
3:00 PM49 °FCool.10 mph96%29.90 "HgN/A
2:00 PM49 °FLight rain. Overcast.12 mph96%29.90 "Hg2 mi
1:00 PM49 °FCool.10 mph95%29.92 "HgN/A
12:00 PM49 °FCool.10 mph93%29.94 "HgN/A
11:00 AM48 °FLight rain. Overcast.9 mph92%29.95 "Hg4 mi
10:00 AM48 °FCool.7 mph92%29.97 "HgN/A
9:00 AM47 °FCool.6 mph86%29.98 "HgN/A
8:00 AM47 °FOvercast.5 mph83%30.00 "Hg12 mi
7:00 AM46 °FCool.1 mph79%30.01 "HgN/A
6:00 AM44 °FQuite cool.2 mph80%30.01 "HgN/A
5:00 AM44 °FQuite cool.3 mph79%30.03 "HgN/A
4:00 AM44 °FQuite cool.3 mph76%30.05 "HgN/A
3:00 AM43 °FQuite cool.5 mph77%30.06 "HgN/A
2:00 AM44 °FQuite cool.5 mph76%30.08 "HgN/A
1:00 AM45 °FCool.8 mph72%30.09 "HgN/A
Weather by CustomWeather, © 2015

See weather overviewHow to use our weather pages